Tracking 19477 objects as of 16-Jan-2019
HD Live streaming from Space Station
objects crossing your sky now

COSMOS 521

Track COSMOS 521 now!
10-day predictions
COSMOS 521 is classified as:


NORAD ID: 6206
Int'l Code: 1972-074A
Perigee: 983.0 km
Apogee: 1,012.9 km
Inclination: 65.8 °
Period: 104.9 minutes
Semi major axis: 7368 km
RCS: 1.4458 m2 (large)
Launch date: September 29, 1972
Source: Commonwealth of Independent States (former USSR) (CIS)
Launch site: PLESETSK MISSILE AND SPACE COMPLEX (PKMTR)
aabbcc
Your satellite tracking list
Your tracking list is empty




NASA's NSSDC Master Catalog

Two Line Element Set (TLE):
1  6206U 72074A   19015.78758299 -.00000089 +00000-0 -96821-5 0  9995
2  6206 065.8286 109.1466 0020223 292.2563 212.7986 13.72443159319799
Source of the keplerian elements: AFSPC